Flag for U.S.A. Weather past 2 weeks in Prudhoe Bay, Alaska, U.S.A.

Now
44 °F

Overcast.


Feels Like: 43 °F
Forecast: 37 / 49 °F
Wind: 3 mph from Southeast

Location: Deadhorse Airport

Current Time: Aug 22, 2014 at 8:53:26 AM

Latest Report: Aug 22, 2014 at 7:53 AM


Visibility: 10 mi

Pressure: 30.18 "Hg

Humidity: 89%

Dew point: 41 °F

Location of Prudhoe BayLocation

Historic Weather in Prudhoe Bay — Graph

°F

Prudhoe Bay temperature yesterday

Maximum temperature yesterday: 46 °F (at 3:53 PM)
Minimum temperature yesterday: 37 °F (at 12:53 AM)
Average temperature yesterday: 41 °F

Past Weeks' High & Low Weather Summary

 TemperatureHumidityPressure
High63 °F (Aug 17, 1:53 PM)97% (Aug 8, 10:53 PM)30.19 "Hg (Aug 8, 10:53 PM)
Low36 °F (Aug 14, 4:53 AM)60% (Aug 17, 1:53 PM)29.56 "Hg (Aug 17, 7:53 PM)
Average42 °F88%29.89 "Hg
* Reported Aug 7 7:53 AM — Aug 22 7:53 AM, Prudhoe Bay, Weather by CustomWeather, © 2014

Note: Actual official high and low records may vary slightly from our data, if they occured in-between our weather recording intervals... More about our weather records

Advertising

Prudhoe Bay weather history for previous 24 hours

 ConditionsComfort  
Time TempWeatherWind HumidityBarometerVisibility
7:53 AM
Aug 22
44 °FOvercast.3 mph89%30.18 "Hg10 mi
6:53 AM42 °FLight rain. More clouds than sun.5 mph92%30.18 "Hg10 mi
5:53 AM42 °FMostly cloudy.5 mph92%30.18 "Hg10 mi
4:53 AM42 °FLight rain. Fog.3 mph92%30.18 "Hg4 mi
4:04 AM42 °FLight rain. Fog.3 mph92%30.18 "Hg2 mi
3:53 AM42 °FFog.3 mph92%30.19 "Hg1 mi
2:53 AM42 °FFog.No wind92%30.18 "Hg1 mi
1:53 AM42 °FFog.5 mph96%30.19 "Hg1 mi
12:53 AM42 °FFog.3 mph96%30.19 "Hg1 mi
12:02 AM42 °FFog.6 mph96%30.18 "Hg1 mi
11:53 PM
Aug 21
43 °FFog.5 mph93%30.18 "Hg1 mi
10:53 PM43 °FLow clouds.No wind97%30.18 "Hg7 mi
9:53 PM44 °FLow clouds.No wind89%30.18 "Hg10 mi
8:53 PM44 °FLow clouds.No wind89%30.18 "Hg7 mi
7:53 PM44 °FLow clouds.5 mph89%30.17 "Hg10 mi
6:53 PM45 °FFog.6 mph90%30.17 "Hg6 mi
5:53 PM45 °FFog.7 mph90%30.17 "Hg6 mi
5:00 PM45 °FFog.7 mph93%30.17 "Hg2 mi
3:53 PM46 °FFog.7 mph86%30.17 "Hg4 mi
2:53 PM45 °FFog.7 mph90%30.17 "Hg2 mi
1:53 PM45 °FFog.8 mph90%30.16 "Hg2 mi
12:53 PM44 °FFog.7 mph93%30.16 "Hg4 mi
11:53 AM43 °FFog.8 mph93%30.16 "Hg1 mi
10:53 AM42 °FFog.9 mph92%30.15 "Hg5 mi
9:53 AM40 °FFog.9 mph93%30.15 "Hg1 mi
8:53 AM37 °FFog.7 mph96%30.14 "Hg0 mi
Weather by CustomWeather, © 2014

See weather overviewHow to use our weather pages